Oregon State Current Weather Observations

 
 ASUS46 KPQR 250210
 RWROR 
 
 OREGON REGIONAL WEATHER ROUNDUP
 NATIONAL WEATHER SERVICE PORTLAND OR
 600 PM PST MON FEB 24 2020
 
 NOTE: "FAIR" INDICATES FEW OR NO CLOUDS BELOW 12,000 FEET WITH
 NO SIGNIFICANT WEATHER AND/OR OBSTRUCTIONS TO VISIBILITY.
 
 ORZ001>013-250300-
 NORTHWEST OREGON
 
   
 CITY           SKY/WX    TMP DP  RH WIND       PRES   REMARKS
 ASTORIA        PTCLDY    45  38  76 CALM      30.60F                  
 TILLAMOOK      CLEAR     43  37  81 CALM      30.63S                  
 NEWPORT        MOCLDY    45  37  76 N6        30.63F                  
 FLORENCE       FAIR      47  39  74 N3        30.58S                  
 PORTLAND       CLOUDY    48  36  63 NW3       30.62S                  
 VANCOUVER WA   CLOUDY    47  36  65 VRB5      30.62R                  
 SCAPPOOSE      CLOUDY    46  39  76 CALM      30.62R                  
 HILLSBORO      CLOUDY    46  38  73 SW6       30.61R                  
 AURORA         CLOUDY    47  34  60 CALM      30.62S                  
 MCMINNVILLE    CLOUDY    47  37  68 CALM      30.61R                  
 SALEM          PTCLDY    47  31  53 N3        30.59S                  
 CORVALLIS      CLEAR     47  32  56 CALM      30.60S                  
 EUGENE         PTCLDY    44  35  70 N6        30.58S                  
 CRESWELL       PTCLDY    46  36  66 NW6       30.56R                  
 
ORZ021-028-250300- SOUTHWEST OREGON CITY SKY/WX TMP DP RH WIND PRES REMARKS NORTH BEND CLEAR 47 41 80 N13 30.57S BROOKINGS CLEAR 52 38 58 CALM 30.47R ROSEBURG CLEAR 51 33 50 N5 30.54S SEXTON SUMMIT CLEAR 40 28 62 N6 30.46S GRANTS PASS FAIR 54 28 37 NW3 30.51R MEDFORD CLEAR 54 11 18 CALM 30.47S
ORZ014>016-041-250300- COLUMBIA GORGE CITY SKY/WX TMP DP RH WIND PRES REMARKS TROUTDALE CLOUDY 48 34 58 NE5 30.62S HOOD RIVER MOCLDY 41 32 70 CALM 30.57S THE DALLES MOCLDY 44 33 65 NW17 30.55S
ORZ029>031-041-044-049-050-061>064-502-503-505>511-250300- EASTERN OREGON CITY SKY/WX TMP DP RH WIND PRES REMARKS MADRAS CLOUDY 37 27 65 NW10 30.50S WCI 30 REDMOND CLOUDY 41 20 43 NE8 30.46R BEND CLOUDY 41 18 38 W6 30.45R PRINEVILLE CLOUDY 39 21 48 N6 30.46R KLAMATH FALLS CLEAR 42 10 27 NW8 30.41R LAKEVIEW CLEAR 36 16 44 CALM 30.40R HERMISTON PTCLDY 44 29 55 SW9 30.49R PENDLETON PTCLDY 37 26 64 W10 30.48R WCI 30 JOHN DAY CLEAR 36 20 53 NW3 30.43R MEACHAM PTCLDY 29 22 75 CALM 30.42R LA GRANDE PTCLDY 37 24 59 NW13 30.46R WCI 29 BAKER CITY PTCLDY 34 20 56 CALM 30.43R BURNS CLEAR 34 17 50 NW7 30.40R ROME N/A 42 5 21 NW3 30.35R ONTARIO CLEAR 39 19 44 N12 30.45R WCI 32

Data from: http://www.wrh.noaa.gov/sew/get.php?pil=RWR&sid=OR&version=0&format=printer

Current Observations

Current Weather Conditions by Major Highway
Washington State Current Weather Observations   …  Oregon State Current Weather Observation



48 Hour Forecast


Seattle  …  Vancouver  …  Portland
————————————————————————————————————————
Bend  …  Spokane  …  Richland  …  Pendleton  …  Blue Mountains I-84  …  Yakima
————————————————————————————————————————
Goldendale, Washington Higher Elevations  …  Dallesport Airport - Goldendale  …  Bingen - White Salmon - Hood River  …  Index





Top of Page